Time,TemperatureF,DewpointF,PressureIn,WindDirection,WindDirectionDegrees,WindSpeedMPH,WindSpeedGustMPH,Humidity,HourlyPrecipIn,Conditions,Clouds,dailyrainin,SoftwareType,DateUTC
2013-01-17 00:00:00,32.3,15.7,30.18,ESE,105,0.0,0.0,50,0.00,,,0.00,Wunderground v.1.15,2013-01-17 07:00:00,
2013-01-17 00:05:00,32.0,15.4,30.18,ESE,106,0.0,0.0,50,0.00,,,0.00,Wunderground v.1.15,2013-01-17 07:05:00,
2013-01-17 00:15:00,31.2,15.6,30.18,ENE,76,0.0,0.0,52,0.00,,,0.00,Wunderground v.1.15,2013-01-17 07:15:00,
2013-01-17 00:20:00,30.8,15.7,30.18,ENE,72,0.0,0.0,53,0.00,,,0.00,Wunderground v.1.15,2013-01-17 07:20:00,
2013-01-17 00:25:00,30.7,15.6,30.18,SE,125,0.0,0.0,53,0.00,,,0.00,Wunderground v.1.15,2013-01-17 07:25:00,
2013-01-17 00:35:00,30.5,15.4,30.17,ENE,57,0.0,0.0,53,0.00,,,0.00,Wunderground v.1.15,2013-01-17 07:35:00,
2013-01-17 00:40:00,30.5,15.8,30.17,East,96,0.0,0.0,54,0.00,,,0.00,Wunderground v.1.15,2013-01-17 07:40:00,
2013-01-17 00:45:00,30.2,15.5,30.17,East,96,0.0,0.0,54,0.00,,,0.00,Wunderground v.1.15,2013-01-17 07:45:00,
2013-01-17 00:55:00,29.7,15.5,30.17,SSE,148,0.0,0.0,55,0.00,,,0.00,Wunderground v.1.15,2013-01-17 07:55:00,
2013-01-17 01:00:00,29.7,15.9,30.17,WSW,239,0.0,0.0,56,0.00,,,0.00,Wunderground v.1.15,2013-01-17 08:00:00,
2013-01-17 01:05:00,29.8,15.6,30.17,East,93,0.0,0.0,55,0.00,,,0.00,Wunderground v.1.15,2013-01-17 08:05:00,
2013-01-17 01:10:00,29.9,15.7,30.17,NE,44,0.0,0.0,55,0.00,,,0.00,Wunderground v.1.15,2013-01-17 08:10:00,
2013-01-17 01:15:00,29.8,15.6,30.18,NE,45,0.0,0.0,55,0.00,,,0.00,Wunderground v.1.15,2013-01-17 08:15:00,
2013-01-17 01:25:00,29.4,15.6,30.18,NNE,30,0.0,0.0,56,0.00,,,0.00,Wunderground v.1.15,2013-01-17 08:25:00,
2013-01-17 01:30:00,29.7,15.9,30.18,NE,56,0.0,0.0,56,0.00,,,0.00,Wunderground v.1.15,2013-01-17 08:30:00,
2013-01-17 01:35:00,29.6,15.4,30.17,NE,55,0.0,0.0,55,0.00,,,0.00,Wunderground v.1.15,2013-01-17 08:35:00,
2013-01-17 01:45:00,28.9,15.2,30.17,East,93,0.0,0.0,56,0.00,,,0.00,Wunderground v.1.15,2013-01-17 08:45:00,
2013-01-17 01:50:00,28.9,15.2,30.18,East,93,0.0,0.0,56,0.00,,,0.00,Wunderground v.1.15,2013-01-17 08:50:00,
2013-01-17 01:55:00,28.8,15.1,30.18,East,93,0.0,0.0,56,0.00,,,0.00,Wunderground v.1.15,2013-01-17 08:55:00,
2013-01-17 02:05:00,28.4,15.1,30.18,ENE,70,0.0,0.0,57,0.00,,,0.00,Wunderground v.1.15,2013-01-17 09:05:00,
2013-01-17 02:10:00,28.1,14.8,30.17,ENE,71,0.0,0.0,57,0.00,,,0.00,Wunderground v.1.15,2013-01-17 09:10:00,
2013-01-17 02:15:00,28.0,14.7,30.17,NE,50,0.0,0.0,57,0.00,,,0.00,Wunderground v.1.15,2013-01-17 09:15:00,
2013-01-17 02:25:00,28.1,14.8,30.17,NE,51,0.0,0.0,57,0.00,,,0.00,Wunderground v.1.15,2013-01-17 09:25:00,
2013-01-17 02:30:00,28.0,15.1,30.17,NE,50,0.0,0.0,58,0.00,,,0.00,Wunderground v.1.15,2013-01-17 09:30:00,
2013-01-17 02:35:00,27.7,14.8,30.17,ENE,77,0.0,0.0,58,0.00,,,0.00,Wunderground v.1.15,2013-01-17 09:35:00,
2013-01-17 02:40:00,27.7,15.2,30.17,NE,51,0.0,0.0,59,0.00,,,0.00,Wunderground v.1.15,2013-01-17 09:40:00,
2013-01-17 02:50:00,27.9,15.0,30.17,SSW,204,0.0,0.0,58,0.00,,,0.00,Wunderground v.1.15,2013-01-17 09:50:00,
2013-01-17 02:55:00,28.4,15.1,30.17,ESE,103,0.0,0.0,57,0.00,,,0.00,Wunderground v.1.15,2013-01-17 09:55:00,
2013-01-17 03:00:00,28.5,15.2,30.17,South,184,0.0,0.0,57,0.00,,,0.00,Wunderground v.1.15,2013-01-17 10:00:00,
2013-01-17 03:05:00,28.3,15.4,30.17,WSW,257,0.0,0.0,58,0.00,,,0.00,Wunderground v.1.15,2013-01-17 10:05:00,
2013-01-17 03:15:00,28.4,15.5,30.17,North,4,0.0,0.0,58,0.00,,,0.00,Wunderground v.1.15,2013-01-17 10:15:00,
2013-01-17 03:20:00,28.2,15.3,30.17,WNW,301,0.0,0.0,58,0.00,,,0.00,Wunderground v.1.15,2013-01-17 10:20:00,
2013-01-17 03:25:00,28.6,15.3,30.17,NE,47,1.0,1.0,57,0.00,,,0.00,Wunderground v.1.15,2013-01-17 10:25:00,
2013-01-17 03:35:00,29.3,15.5,30.17,West,270,1.0,2.0,56,0.00,,,0.00,Wunderground v.1.15,2013-01-17 10:35:00,
2013-01-17 03:40:00,29.3,15.1,30.17,NE,46,1.0,1.0,55,0.00,,,0.00,Wunderground v.1.15,2013-01-17 10:40:00,
2013-01-17 03:45:00,29.2,15.0,30.17,NE,56,0.0,1.0,55,0.00,,,0.00,Wunderground v.1.15,2013-01-17 10:45:00,
2013-01-17 03:55:00,29.4,15.6,30.17,NE,47,1.0,3.0,56,0.00,,,0.00,Wunderground v.1.15,2013-01-17 10:55:00,
2013-01-17 04:00:00,30.0,15.8,30.17,SE,131,1.0,1.0,55,0.00,,,0.00,Wunderground v.1.15,2013-01-17 11:00:00,
2013-01-17 04:05:00,29.9,15.7,30.16,ESE,103,1.0,1.0,55,0.00,,,0.00,Wunderground v.1.15,2013-01-17 11:05:00,
2013-01-17 04:15:00,29.4,16.0,30.16,ESE,110,0.0,3.0,57,0.00,,,0.00,Wunderground v.1.15,2013-01-17 11:15:00,
2013-01-17 04:20:00,29.1,16.1,30.16,ESE,121,1.0,4.0,58,0.00,,,0.00,Wunderground v.1.15,2013-01-17 11:20:00,
2013-01-17 04:25:00,29.8,16.0,30.16,East,96,2.0,4.0,56,0.00,,,0.00,Wunderground v.1.15,2013-01-17 11:25:00,
2013-01-17 04:30:00,30.8,16.5,30.16,South,190,1.0,1.0,55,0.00,,,0.00,Wunderground v.1.15,2013-01-17 11:30:00,
2013-01-17 04:35:00,31.3,15.7,30.15,NE,44,1.0,1.0,52,0.00,,,0.00,Wunderground v.1.15,2013-01-17 11:35:00,
2013-01-17 04:45:00,30.5,15.8,30.15,NE,44,0.0,0.0,54,0.00,,,0.00,Wunderground v.1.15,2013-01-17 11:45:00,
2013-01-17 04:50:00,30.1,15.9,30.15,NE,44,0.0,0.0,55,0.00,,,0.00,Wunderground v.1.15,2013-01-17 11:50:00,
2013-01-17 04:55:00,29.3,15.5,30.15,NE,44,0.0,0.0,56,0.00,,,0.00,Wunderground v.1.15,2013-01-17 11:55:00,
2013-01-17 05:05:00,28.5,15.6,30.15,SW,224,0.0,0.0,58,0.00,,,0.00,Wunderground v.1.15,2013-01-17 12:05:00,
2013-01-17 05:10:00,28.1,15.2,30.15,South,181,0.0,0.0,58,0.00,,,0.00,Wunderground v.1.15,2013-01-17 12:10:00,
2013-01-17 05:15:00,27.9,15.8,30.15,NE,56,0.0,0.0,60,0.00,,,0.00,Wunderground v.1.15,2013-01-17 12:15:00,
2013-01-17 05:25:00,27.6,15.5,30.15,WNW,297,0.0,0.0,60,0.00,,,0.00,Wunderground v.1.15,2013-01-17 12:25:00,
2013-01-17 05:30:00,27.6,15.9,30.15,East,93,0.0,0.0,61,0.00,,,0.00,Wunderground v.1.15,2013-01-17 12:30:00,
2013-01-17 05:35:00,27.6,15.9,30.15,ENE,70,0.0,0.0,61,0.00,,,0.00,Wunderground v.1.15,2013-01-17 12:35:00,
2013-01-17 05:40:00,27.3,15.6,30.15,West,281,0.0,0.0,61,0.00,,,0.00,Wunderground v.1.15,2013-01-17 12:40:00,
2013-01-17 05:50:00,26.7,15.4,30.15,SSE,148,0.0,0.0,62,0.00,,,0.00,Wunderground v.1.15,2013-01-17 12:50:00,
2013-01-17 05:55:00,26.6,15.7,30.14,NE,56,0.0,0.0,63,0.00,,,0.00,Wunderground v.1.15,2013-01-17 12:55:00,
2013-01-17 06:00:00,26.7,15.8,30.15,NE,50,0.0,0.0,63,0.00,,,0.00,Wunderground v.1.15,2013-01-17 13:00:00,
2013-01-17 06:05:00,26.9,15.6,30.15,ESE,108,0.0,0.0,62,0.00,,,0.00,Wunderground v.1.15,2013-01-17 13:05:00,
2013-01-17 06:15:00,27.3,15.6,30.15,NE,43,1.0,1.0,61,0.00,,,0.00,Wunderground v.1.15,2013-01-17 13:15:00,
2013-01-17 06:20:00,27.1,15.4,30.15,NE,44,0.0,0.0,61,0.00,,,0.00,Wunderground v.1.15,2013-01-17 13:20:00,
2013-01-17 06:25:00,27.1,15.0,30.16,NE,46,0.0,0.0,60,0.00,,,0.00,Wunderground v.1.15,2013-01-17 13:25:00,
2013-01-17 06:35:00,28.3,15.8,30.16,ESE,108,0.0,0.0,59,0.00,,,0.00,Wunderground v.1.15,2013-01-17 13:35:00,
2013-01-17 06:40:00,28.1,15.6,30.16,SE,127,0.0,0.0,59,0.00,,,0.00,Wunderground v.1.15,2013-01-17 13:40:00,
2013-01-17 06:50:00,27.6,15.9,30.16,NE,50,0.0,0.0,61,0.00,,,0.00,Wunderground v.1.15,2013-01-17 13:50:00,
2013-01-17 06:55:00,27.9,15.0,30.16,NE,34,0.0,2.0,58,0.00,,,0.00,Wunderground v.1.15,2013-01-17 13:55:00,
2013-01-17 07:05:00,29.0,15.2,30.16,SW,217,0.0,1.0,56,0.00,,,0.00,Wunderground v.1.15,2013-01-17 14:05:00,
2013-01-17 07:10:00,31.0,15.4,30.16,WNW,292,1.0,1.0,52,0.00,,,0.00,Wunderground v.1.15,2013-01-17 14:10:00,
2013-01-17 07:15:00,33.8,15.7,30.16,NE,41,2.0,3.0,47,0.00,,,0.00,Wunderground v.1.15,2013-01-17 14:15:00,
2013-01-17 07:20:00,35.1,15.3,30.16,NE,54,2.0,2.0,44,0.00,,,0.00,Wunderground v.1.15,2013-01-17 14:20:00,
2013-01-17 07:25:00,34.7,15.0,30.16,NE,47,0.0,2.0,44,0.00,,,0.00,Wunderground v.1.15,2013-01-17 14:25:00,
2013-01-17 07:35:00,35.4,14.0,30.16,ESE,115,1.0,2.0,41,0.00,,,0.00,Wunderground v.1.15,2013-01-17 14:35:00,
2013-01-17 07:40:00,43.6,14.2,30.16,East,96,3.0,6.0,30,0.00,,,0.00,Wunderground v.1.15,2013-01-17 14:40:00,
2013-01-17 07:50:00,49.2,12.9,30.17,East,82,5.0,7.0,23,0.00,,,0.00,Wunderground v.1.15,2013-01-17 14:50:00,
2013-01-17 08:00:00,52.5,12.5,30.17,ENE,69,8.0,8.0,20,0.00,,,0.00,Wunderground v.1.15,2013-01-17 15:00:00,
2013-01-17 08:05:00,53.3,12.0,30.17,SSE,155,8.0,8.0,19,0.00,,,0.00,Wunderground v.1.15,2013-01-17 15:05:00,
2013-01-17 08:10:00,54.0,12.6,30.17,ENE,77,7.0,14.0,19,0.00,,,0.00,Wunderground v.1.15,2013-01-17 15:10:00,
2013-01-17 08:20:00,54.5,11.8,30.17,East,83,9.0,12.0,18,0.00,,,0.00,Wunderground v.1.15,2013-01-17 15:20:00,
2013-01-17 08:25:00,54.7,12.0,30.17,ESE,104,9.0,12.0,18,0.00,,,0.00,Wunderground v.1.15,2013-01-17 15:25:00,
2013-01-17 08:30:00,55.2,11.1,30.17,ENE,68,9.0,11.0,17,0.00,,,0.00,Wunderground v.1.15,2013-01-17 15:30:00,
2013-01-17 08:35:00,55.3,11.2,30.17,ESE,119,10.0,11.0,17,0.00,,,0.00,Wunderground v.1.15,2013-01-17 15:35:00,
2013-01-17 08:45:00,55.6,11.4,30.17,NE,37,10.0,18.0,17,0.00,,,0.00,Wunderground v.1.15,2013-01-17 15:45:00,
2013-01-17 08:50:00,55.6,11.4,30.17,ESE,105,10.0,12.0,17,0.00,,,0.00,Wunderground v.1.15,2013-01-17 15:50:00,
2013-01-17 08:55:00,55.8,10.2,30.17,NE,51,11.0,12.0,16,0.00,,,0.00,Wunderground v.1.15,2013-01-17 15:55:00,
2013-01-17 09:00:00,55.8,10.2,30.18,East,86,11.0,11.0,16,0.00,,,0.00,Wunderground v.1.15,2013-01-17 16:00:00,
2013-01-17 09:10:00,55.9,10.3,30.18,ESE,104,11.0,11.0,16,0.00,,,0.00,Wunderground v.1.15,2013-01-17 16:10:00,
2013-01-17 09:15:00,56.1,10.4,30.18,NE,44,11.0,11.0,16,0.00,,,0.00,Wunderground v.1.15,2013-01-17 16:15:00,
2013-01-17 09:20:00,56.4,10.7,30.18,East,98,10.0,11.0,16,0.00,,,0.00,Wunderground v.1.15,2013-01-17 16:20:00,
2013-01-17 09:25:00,56.6,10.9,30.18,NE,43,10.0,11.0,16,0.00,,,0.00,Wunderground v.1.15,2013-01-17 16:25:00,
2013-01-17 09:35:00,57.1,9.8,30.18,ESE,111,10.0,12.0,15,0.00,,,0.00,Wunderground v.1.15,2013-01-17 16:35:00,
2013-01-17 09:40:00,57.4,11.5,30.19,ESE,103,10.0,10.0,16,0.00,,,0.00,Wunderground v.1.15,2013-01-17 16:40:00,
2013-01-17 09:45:00,57.7,10.3,30.19,East,85,8.0,10.0,15,0.00,,,0.00,Wunderground v.1.15,2013-01-17 16:45:00,
2013-01-17 09:50:00,58.2,10.7,30.19,East,85,8.0,14.0,15,0.00,,,0.00,Wunderground v.1.15,2013-01-17 16:50:00,
2013-01-17 09:55:00,58.3,10.8,30.19,ESE,119,8.0,14.0,15,0.00,,,0.00,Wunderground v.1.15,2013-01-17 16:55:00,
2013-01-17 10:05:00,58.4,10.9,30.19,ENE,71,9.0,9.0,15,0.00,,,0.00,Wunderground v.1.15,2013-01-17 17:05:00,
2013-01-17 10:10:00,58.7,11.1,30.19,ESE,104,10.0,11.0,15,0.00,,,0.00,Wunderground v.1.15,2013-01-17 17:10:00,
2013-01-17 10:15:00,58.9,9.7,30.19,East,86,10.0,11.0,14,0.00,,,0.00,Wunderground v.1.15,2013-01-17 17:15:00,
2013-01-17 10:20:00,59.3,10.0,30.19,East,93,9.0,9.0,14,0.00,,,0.00,Wunderground v.1.15,2013-01-17 17:20:00,
2013-01-17 10:30:00,59.6,10.3,30.19,ENE,69,8.0,14.0,14,0.00,,,0.00,Wunderground v.1.15,2013-01-17 17:30:00,
2013-01-17 10:35:00,59.7,10.3,30.19,East,83,9.0,14.0,14,0.00,,,0.00,Wunderground v.1.15,2013-01-17 17:35:00,
2013-01-17 10:40:00,59.7,10.3,30.18,NNE,33,9.0,9.0,14,0.00,,,0.00,Wunderground v.1.15,2013-01-17 17:40:00,
2013-01-17 10:45:00,60.1,10.7,30.18,East,82,9.0,9.0,14,0.00,,,0.00,Wunderground v.1.15,2013-01-17 17:45:00,
2013-01-17 10:55:00,60.7,11.1,30.18,ESE,104,8.0,8.0,14,0.00,,,0.00,Wunderground v.1.15,2013-01-17 17:55:00,
2013-01-17 11:00:00,60.8,11.2,30.18,ENE,72,9.0,9.0,14,0.00,,,0.00,Wunderground v.1.15,2013-01-17 18:00:00,
2013-01-17 11:05:00,61.0,9.7,30.18,NE,44,8.0,9.0,13,0.00,,,0.00,Wunderground v.1.15,2013-01-17 18:05:00,
2013-01-17 11:10:00,61.3,10.0,30.17,ESE,120,7.0,14.0,13,0.00,,,0.00,Wunderground v.1.15,2013-01-17 18:10:00,
2013-01-17 11:15:00,61.6,10.2,30.17,ENE,75,7.0,14.0,13,0.00,,,0.00,Wunderground v.1.15,2013-01-17 18:15:00,
2013-01-17 11:25:00,61.8,10.4,30.17,NE,44,8.0,11.0,13,0.00,,,0.00,Wunderground v.1.15,2013-01-17 18:25:00,
2013-01-17 11:30:00,62.1,10.6,30.16,ESE,121,8.0,8.0,13,0.00,,,0.00,Wunderground v.1.15,2013-01-17 18:30:00,
2013-01-17 11:35:00,62.3,10.8,30.16,NNE,22,8.0,8.0,13,0.00,,,0.00,Wunderground v.1.15,2013-01-17 18:35:00,
2013-01-17 11:45:00,62.8,11.1,30.15,ENE,64,8.0,14.0,13,0.00,,,0.00,Wunderground v.1.15,2013-01-17 18:45:00,
2013-01-17 11:50:00,63.5,11.7,30.15,ENE,61,7.0,7.0,13,0.00,,,0.00,Wunderground v.1.15,2013-01-17 18:50:00,
2013-01-17 11:55:00,63.8,11.9,30.14,ESE,107,7.0,8.0,13,0.00,,,0.00,Wunderground v.1.15,2013-01-17 18:55:00,
2013-01-17 12:05:00,64.1,10.4,30.13,NNE,27,8.0,10.0,12,0.00,,,0.00,Wunderground v.1.15,2013-01-17 19:05:00,
2013-01-17 12:10:00,64.1,12.2,30.13,NE,44,8.0,8.0,13,0.00,,,0.00,Wunderground v.1.15,2013-01-17 19:10:00,
2013-01-17 12:15:00,64.6,10.8,30.12,ENE,74,8.0,8.0,12,0.00,,,0.00,Wunderground v.1.15,2013-01-17 19:15:00,
2013-01-17 12:20:00,64.9,11.0,30.12,ESE,119,8.0,8.0,12,0.00,,,0.00,Wunderground v.1.15,2013-01-17 19:20:00,
2013-01-17 12:25:00,64.7,10.8,30.12,ENE,70,8.0,8.0,12,0.00,,,0.00,Wunderground v.1.15,2013-01-17 19:25:00,
2013-01-17 12:35:00,64.9,11.0,30.11,East,80,10.0,11.0,12,0.00,,,0.00,Wunderground v.1.15,2013-01-17 19:35:00,
2013-01-17 12:40:00,65.2,11.2,30.10,SE,125,10.0,10.0,12,0.00,,,0.00,Wunderground v.1.15,2013-01-17 19:40:00,
2013-01-17 12:45:00,65.2,11.2,30.10,NE,41,10.0,10.0,12,0.00,,,0.00,Wunderground v.1.15,2013-01-17 19:45:00,
2013-01-17 12:50:00,65.0,11.1,30.10,ESE,103,10.0,10.0,12,0.00,,,0.00,Wunderground v.1.15,2013-01-17 19:50:00,
2013-01-17 13:00:00,65.1,11.2,30.09,ESE,117,10.0,12.0,12,0.00,,,0.00,Wunderground v.1.15,2013-01-17 20:00:00,
2013-01-17 13:05:00,65.2,11.2,30.09,SE,138,10.0,12.0,12,0.00,,,0.00,Wunderground v.1.15,2013-01-17 20:05:00,
2013-01-17 13:10:00,65.3,11.3,30.08,East,89,11.0,17.0,12,0.00,,,0.00,Wunderground v.1.15,2013-01-17 20:10:00,
2013-01-17 13:15:00,65.4,11.4,30.08,ESE,105,11.0,17.0,12,0.00,,,0.00,Wunderground v.1.15,2013-01-17 20:15:00,
2013-01-17 13:25:00,65.5,11.5,30.08,NE,38,11.0,14.0,12,0.00,,,0.00,Wunderground v.1.15,2013-01-17 20:25:00,
2013-01-17 13:30:00,65.4,11.4,30.07,NE,37,11.0,11.0,12,0.00,,,0.00,Wunderground v.1.15,2013-01-17 20:30:00,
2013-01-17 13:35:00,65.2,11.2,30.07,East,98,11.0,11.0,12,0.00,,,0.00,Wunderground v.1.15,2013-01-17 20:35:00,
2013-01-17 13:40:00,65.2,13.0,30.07,SE,124,11.0,12.0,13,0.00,,,0.00,Wunderground v.1.15,2013-01-17 20:40:00,
2013-01-17 13:45:00,65.2,13.0,30.07,ESE,104,11.0,12.0,13,0.00,,,0.00,Wunderground v.1.15,2013-01-17 20:45:00,
2013-01-17 13:55:00,65.6,11.5,30.07,ESE,111,10.0,11.0,12,0.00,,,0.00,Wunderground v.1.15,2013-01-17 20:55:00,
2013-01-17 14:00:00,65.8,11.7,30.06,ENE,71,9.0,16.0,12,0.00,,,0.00,Wunderground v.1.15,2013-01-17 21:00:00,
2013-01-17 14:05:00,65.8,11.7,30.06,NE,53,9.0,16.0,12,0.00,,,0.00,Wunderground v.1.15,2013-01-17 21:05:00,
2013-01-17 14:15:00,65.9,11.8,30.06,NE,54,10.0,12.0,12,0.00,,,0.00,Wunderground v.1.15,2013-01-17 21:15:00,
2013-01-17 14:20:00,66.0,11.9,30.06,ENE,67,10.0,10.0,12,0.00,,,0.00,Wunderground v.1.15,2013-01-17 21:20:00,
2013-01-17 14:25:00,66.1,11.9,30.06,East,80,9.0,10.0,12,0.00,,,0.00,Wunderground v.1.15,2013-01-17 21:25:00,
2013-01-17 14:35:00,66.7,12.4,30.06,NE,37,8.0,8.0,12,0.00,,,0.00,Wunderground v.1.15,2013-01-17 21:35:00,
2013-01-17 14:40:00,66.9,12.6,30.06,East,89,9.0,9.0,12,0.00,,,0.00,Wunderground v.1.15,2013-01-17 21:40:00,
2013-01-17 14:45:00,67.0,12.6,30.05,NE,49,8.0,9.0,12,0.00,,,0.00,Wunderground v.1.15,2013-01-17 21:45:00,
2013-01-17 14:50:00,66.9,12.6,30.05,ESE,102,8.0,8.0,12,0.00,,,0.00,Wunderground v.1.15,2013-01-17 21:50:00,
2013-01-17 14:55:00,66.9,12.6,30.05,NNE,33,8.0,8.0,12,0.00,,,0.00,Wunderground v.1.15,2013-01-17 21:55:00,
2013-01-17 15:05:00,66.7,12.4,30.05,ESE,109,10.0,10.0,12,0.00,,,0.00,Wunderground v.1.15,2013-01-17 22:05:00,
2013-01-17 15:10:00,66.9,12.6,30.05,ENE,73,10.0,10.0,12,0.00,,,0.00,Wunderground v.1.15,2013-01-17 22:10:00,
2013-01-17 15:15:00,66.9,12.6,30.05,ESE,121,8.0,10.0,12,0.00,,,0.00,Wunderground v.1.15,2013-01-17 22:15:00,
2013-01-17 15:20:00,67.0,12.6,30.05,NE,43,8.0,11.0,12,0.00,,,0.00,Wunderground v.1.15,2013-01-17 22:20:00,
2013-01-17 15:25:00,66.9,12.6,30.05,NE,41,9.0,11.0,12,0.00,,,0.00,Wunderground v.1.15,2013-01-17 22:25:00,
2013-01-17 15:35:00,66.9,12.6,30.05,East,89,9.0,11.0,12,0.00,,,0.00,Wunderground v.1.15,2013-01-17 22:35:00,
2013-01-17 15:40:00,66.8,12.5,30.05,NE,38,9.0,9.0,12,0.00,,,0.00,Wunderground v.1.15,2013-01-17 22:40:00,
2013-01-17 15:50:00,67.0,14.5,30.06,NE,35,8.0,10.0,13,0.00,,,0.00,Wunderground v.1.15,2013-01-17 22:50:00,
2013-01-17 15:55:00,66.8,12.5,30.06,NE,53,9.0,10.0,12,0.00,,,0.00,Wunderground v.1.15,2013-01-17 22:55:00,
2013-01-17 16:05:00,66.7,14.2,30.06,SSE,160,9.0,11.0,13,0.00,,,0.00,Wunderground v.1.15,2013-01-17 23:05:00,
2013-01-17 16:10:00,66.9,14.4,30.05,East,91,8.0,8.0,13,0.00,,,0.00,Wunderground v.1.15,2013-01-17 23:10:00,
2013-01-17 16:15:00,66.8,14.3,30.06,East,99,7.0,10.0,13,0.00,,,0.00,Wunderground v.1.15,2013-01-17 23:15:00,
2013-01-17 16:20:00,66.6,14.2,30.06,NE,41,8.0,12.0,13,0.00,,,0.00,Wunderground v.1.15,2013-01-17 23:20:00,
2013-01-17 16:30:00,66.3,13.9,30.06,NE,41,9.0,16.0,13,0.00,,,0.00,Wunderground v.1.15,2013-01-17 23:30:00,
2013-01-17 16:35:00,66.2,13.8,30.06,ESE,118,8.0,16.0,13,0.00,,,0.00,Wunderground v.1.15,2013-01-17 23:35:00,
2013-01-17 16:40:00,66.1,13.8,30.06,NE,40,8.0,8.0,13,0.00,,,0.00,Wunderground v.1.15,2013-01-17 23:40:00,
2013-01-17 16:45:00,66.0,13.7,30.06,NE,46,8.0,8.0,13,0.00,,,0.00,Wunderground v.1.15,2013-01-17 23:45:00,
2013-01-17 16:55:00,65.8,13.5,30.06,NE,45,9.0,9.0,13,0.00,,,0.00,Wunderground v.1.15,2013-01-17 23:55:00,
2013-01-17 17:00:00,65.6,13.4,30.06,NE,39,9.0,9.0,13,0.00,,,0.00,Wunderground v.1.15,2013-01-18 00:00:00,
2013-01-17 17:05:00,65.5,15.0,30.06,ENE,69,9.0,9.0,14,0.00,,,0.00,Wunderground v.1.15,2013-01-18 00:05:00,
2013-01-17 17:10:00,65.4,14.9,30.06,NE,39,8.0,8.0,14,0.00,,,0.00,Wunderground v.1.15,2013-01-18 00:10:00,
2013-01-17 17:20:00,64.9,14.5,30.06,NE,34,8.0,12.0,14,0.00,,,0.00,Wunderground v.1.15,2013-01-18 00:20:00,
2013-01-17 17:25:00,64.7,14.3,30.06,NE,43,8.0,12.0,14,0.00,,,0.00,Wunderground v.1.15,2013-01-18 00:25:00,
2013-01-17 17:30:00,64.3,14.0,30.06,ENE,59,8.0,8.0,14,0.00,,,0.00,Wunderground v.1.15,2013-01-18 00:30:00,
2013-01-17 17:35:00,64.0,13.8,30.06,NE,56,8.0,12.0,14,0.00,,,0.00,Wunderground v.1.15,2013-01-18 00:35:00,
2013-01-17 17:45:00,63.3,14.8,30.06,NE,46,7.0,9.0,15,0.00,,,0.00,Wunderground v.1.15,2013-01-18 00:45:00,
2013-01-17 17:50:00,63.2,14.7,30.06,NE,44,8.0,10.0,15,0.00,,,0.00,Wunderground v.1.15,2013-01-18 00:50:00,
2013-01-17 17:55:00,63.0,14.6,30.06,NE,47,8.0,10.0,15,0.00,,,0.00,Wunderground v.1.15,2013-01-18 00:55:00,
2013-01-17 18:00:00,62.8,14.4,30.06,NE,51,8.0,8.0,15,0.00,,,0.00,Wunderground v.1.15,2013-01-18 01:00:00,
2013-01-17 18:10:00,62.5,14.2,30.07,NE,47,7.0,7.0,15,0.00,,,0.00,Wunderground v.1.15,2013-01-18 01:10:00,
2013-01-17 18:15:00,62.4,14.1,30.07,NE,46,6.0,9.0,15,0.00,,,0.00,Wunderground v.1.15,2013-01-18 01:15:00,
2013-01-17 18:20:00,62.5,14.2,30.07,ENE,77,7.0,7.0,15,0.00,,,0.00,Wunderground v.1.15,2013-01-18 01:20:00,
2013-01-17 18:25:00,62.4,15.6,30.07,NE,49,7.0,7.0,16,0.00,,,0.00,Wunderground v.1.15,2013-01-18 01:25:00,
2013-01-17 18:35:00,62.1,15.3,30.07,ENE,76,6.0,8.0,16,0.00,,,0.00,Wunderground v.1.15,2013-01-18 01:35:00,
2013-01-17 18:40:00,62.0,15.2,30.07,NE,44,6.0,6.0,16,0.00,,,0.00,Wunderground v.1.15,2013-01-18 01:40:00,
2013-01-17 18:50:00,62.1,15.3,30.07,NE,41,7.0,10.0,16,0.00,,,0.00,Wunderground v.1.15,2013-01-18 01:50:00,
2013-01-17 18:55:00,62.1,15.3,30.08,East,94,7.0,10.0,16,0.00,,,0.00,Wunderground v.1.15,2013-01-18 01:55:00,
2013-01-17 19:05:00,61.9,15.1,30.07,NE,46,6.0,7.0,16,0.00,,,0.00,Wunderground v.1.15,2013-01-18 02:05:00,
2013-01-17 19:10:00,62.1,15.3,30.07,ENE,77,7.0,7.0,16,0.00,,,0.00,Wunderground v.1.15,2013-01-18 02:10:00,
2013-01-17 19:15:00,62.1,15.3,30.07,NNE,26,7.0,9.0,16,0.00,,,0.00,Wunderground v.1.15,2013-01-18 02:15:00,
2013-01-17 19:20:00,62.1,15.3,30.08,East,93,7.0,7.0,16,0.00,,,0.00,Wunderground v.1.15,2013-01-18 02:20:00,
2013-01-17 19:25:00,62.0,15.2,30.08,NE,52,6.0,7.0,16,0.00,,,0.00,Wunderground v.1.15,2013-01-18 02:25:00,
2013-01-17 19:35:00,61.7,15.0,30.08,ENE,70,6.0,8.0,16,0.00,,,0.00,Wunderground v.1.15,2013-01-18 02:35:00,
2013-01-17 19:40:00,62.0,15.2,30.08,ENE,57,6.0,10.0,16,0.00,,,0.00,Wunderground v.1.15,2013-01-18 02:40:00,
2013-01-17 19:45:00,61.9,15.1,30.08,ENE,63,7.0,10.0,16,0.00,,,0.00,Wunderground v.1.15,2013-01-18 02:45:00,
2013-01-17 19:55:00,61.7,15.0,30.08,NNE,27,7.0,9.0,16,0.00,,,0.00,Wunderground v.1.15,2013-01-18 02:55:00,
2013-01-17 20:00:00,61.7,15.0,30.08,ESE,122,7.0,7.0,16,0.00,,,0.00,Wunderground v.1.15,2013-01-18 03:00:00,
2013-01-17 20:10:00,61.8,15.1,30.08,East,82,8.0,9.0,16,0.00,,,0.00,Wunderground v.1.15,2013-01-18 03:10:00,
2013-01-17 20:15:00,61.8,15.1,30.08,NE,45,8.0,9.0,16,0.00,,,0.00,Wunderground v.1.15,2013-01-18 03:15:00,
2013-01-17 20:20:00,61.6,14.9,30.08,ENE,72,7.0,8.0,16,0.00,,,0.00,Wunderground v.1.15,2013-01-18 03:20:00,
2013-01-17 20:25:00,61.6,14.9,30.08,NE,50,7.0,8.0,16,0.00,,,0.00,Wunderground v.1.15,2013-01-18 03:25:00,
2013-01-17 20:35:00,61.5,14.8,30.09,NE,40,7.0,11.0,16,0.00,,,0.00,Wunderground v.1.15,2013-01-18 03:35:00,
2013-01-17 20:40:00,61.5,14.8,30.08,East,80,7.0,7.0,16,0.00,,,0.00,Wunderground v.1.15,2013-01-18 03:40:00,
2013-01-17 20:45:00,61.6,14.9,30.09,NNE,31,7.0,10.0,16,0.00,,,0.00,Wunderground v.1.15,2013-01-18 03:45:00,
2013-01-17 20:50:00,61.4,16.1,30.09,ENE,75,7.0,7.0,17,0.00,,,0.00,Wunderground v.1.15,2013-01-18 03:50:00,
2013-01-17 20:55:00,61.4,16.1,30.09,NE,56,7.0,10.0,17,0.00,,,0.00,Wunderground v.1.15,2013-01-18 03:55:00,
2013-01-17 21:05:00,61.4,16.1,30.09,NE,53,7.0,9.0,17,0.00,,,0.00,Wunderground v.1.15,2013-01-18 04:05:00,
2013-01-17 21:10:00,61.4,16.1,30.09,NNE,30,6.0,13.0,17,0.00,,,0.00,Wunderground v.1.15,2013-01-18 04:10:00,
2013-01-17 21:15:00,61.4,16.1,30.09,East,92,7.0,13.0,17,0.00,,,0.00,Wunderground v.1.15,2013-01-18 04:15:00,
2013-01-17 21:25:00,60.9,15.7,30.09,NE,56,7.0,7.0,17,0.00,,,0.00,Wunderground v.1.15,2013-01-18 04:25:00,
2013-01-17 21:30:00,60.9,15.7,30.09,ENE,70,6.0,6.0,17,0.00,,,0.00,Wunderground v.1.15,2013-01-18 04:30:00,
2013-01-17 21:35:00,60.5,15.4,30.09,East,96,6.0,6.0,17,0.00,,,0.00,Wunderground v.1.15,2013-01-18 04:35:00,
2013-01-17 21:40:00,60.8,15.6,30.09,NNE,27,6.0,7.0,17,0.00,,,0.00,Wunderground v.1.15,2013-01-18 04:40:00,
2013-01-17 21:45:00,60.9,15.7,30.09,ENE,71,7.0,10.0,17,0.00,,,0.00,Wunderground v.1.15,2013-01-18 04:45:00,
2013-01-17 21:55:00,60.9,15.7,30.09,East,83,8.0,8.0,17,0.00,,,0.00,Wunderground v.1.15,2013-01-18 04:55:00,
2013-01-17 22:00:00,60.8,15.6,30.09,East,85,7.0,9.0,17,0.00,,,0.00,Wunderground v.1.15,2013-01-18 05:00:00,
2013-01-17 22:05:00,60.7,15.6,30.10,ENE,70,7.0,9.0,17,0.00,,,0.00,Wunderground v.1.15,2013-01-18 05:05:00,
2013-01-17 22:15:00,61.0,15.8,30.10,NE,34,8.0,11.0,17,0.00,,,0.00,Wunderground v.1.15,2013-01-18 05:15:00,
2013-01-17 22:20:00,60.9,15.7,30.09,East,92,8.0,8.0,17,0.00,,,0.00,Wunderground v.1.15,2013-01-18 05:20:00,
2013-01-17 22:25:00,60.6,15.5,30.10,NE,37,7.0,8.0,17,0.00,,,0.00,Wunderground v.1.15,2013-01-18 05:25:00,
2013-01-17 22:30:00,60.5,15.4,30.09,East,96,6.0,7.0,17,0.00,,,0.00,Wunderground v.1.15,2013-01-18 05:30:00,
2013-01-17 22:35:00,60.7,15.6,30.09,ENE,76,7.0,8.0,17,0.00,,,0.00,Wunderground v.1.15,2013-01-18 05:35:00,
2013-01-17 22:45:00,60.5,15.4,30.09,ENE,73,7.0,7.0,17,0.00,,,0.00,Wunderground v.1.15,2013-01-18 05:45:00,
2013-01-17 22:50:00,60.6,15.5,30.09,ENE,65,7.0,7.0,17,0.00,,,0.00,Wunderground v.1.15,2013-01-18 05:50:00,
2013-01-17 23:00:00,60.5,15.4,30.09,NE,54,7.0,9.0,17,0.00,,,0.00,Wunderground v.1.15,2013-01-18 06:00:00,
2013-01-17 23:05:00,60.5,15.4,30.09,East,95,7.0,9.0,17,0.00,,,0.00,Wunderground v.1.15,2013-01-18 06:05:00,
2013-01-17 23:10:00,60.5,15.4,30.09,ENE,68,8.0,8.0,17,0.00,,,0.00,Wunderground v.1.15,2013-01-18 06:10:00,
2013-01-17 23:15:00,60.5,15.4,30.09,SE,129,9.0,9.0,17,0.00,,,0.00,Wunderground v.1.15,2013-01-18 06:15:00,
2013-01-17 23:25:00,60.1,15.1,30.09,East,98,8.0,8.0,17,0.00,,,0.00,Wunderground v.1.15,2013-01-18 06:25:00,
2013-01-17 23:30:00,60.0,15.0,30.08,East,99,8.0,16.0,17,0.00,,,0.00,Wunderground v.1.15,2013-01-18 06:30:00,
2013-01-17 23:35:00,59.9,14.9,30.09,East,101,8.0,16.0,17,0.00,,,0.00,Wunderground v.1.15,2013-01-18 06:35:00,
2013-01-17 23:40:00,59.8,14.8,30.08,ESE,122,8.0,9.0,17,0.00,,,0.00,Wunderground v.1.15,2013-01-18 06:40:00,
2013-01-17 23:45:00,59.6,16.0,30.09,East,92,8.0,9.0,18,0.00,,,0.00,Wunderground v.1.15,2013-01-18 06:45:00,
2013-01-17 23:55:00,59.4,15.8,30.08,East,97,7.0,9.0,18,0.00,,,0.00,Wunderground v.1.15,2013-01-18 06:55:00,